BEIDOU-3 M11 (C25)

Last updated on Sat Dec 13 2025 00:03:25 GMT+0000 (Coordinated Universal Time)

1 43603U 18067B 25345.64499237 .00000073 00000+0 00000+0 0 9999 2 43603 54.1804 187.3644 0005575 36.7806 323.3147 1.86227129 49650
UTC large
Height (km)
Speed (km/s)
/
Latitude / Longitude
Inclination (degrees)
Orbital Period (minutes)
Azimuth
Elevation
Range (km)
Doppler Factor

Next 0 passes for location: London (51.5072 / 0.1276)

Sorry there are no passes over London.